QPF
0.00 0.00 0.00 0.00 0.00 0.00 0.00 0.00 0.00 0.00 0.00 0.00 0.00 0.00 0.00 0.00 0.00 0.00 0.00 0.00 0.00 0.00 0.00 0.00 0.00 0.00 0.01 0.01 0.02 0.02 0.02 0.01 0.01 0.00 0.00 0.00 0.00 0.01 0.02 0.02 0.03 0.01 0.00 0.00 0.00 0.00 0.00 0.00 0.00
0.00 0.00 0.00 0.00 0.00 0.00 0.00 0.00 0.00 0.00 0.00 0.00 0.00 0.00 0.00 0.00 0.00 0.00 0.00 0.00 0.00 0.00 0.00 0.00 0.00 0.00 0.00 0.01 0.01 0.01 0.02 0.01 0.00 0.00 0.00 0.00 0.00 0.00 0.01 0.02 0.02 0.01 0.01 0.00 0.00 0.00 0.00 0.00 0.00
0.00 0.00 0.00 0.00 0.00 0.00 0.00 0.00 0.00 0.00 0.00 0.00 0.00 0.00 0.00 0.00 0.00 0.00 0.00 0.00 0.00 0.00 0.00 0.00 0.00 0.00 0.00 0.00 0.01 0.01 0.01 0.01 0.00 0.00 0.00 0.00 0.00 0.00 0.01 0.02 0.02 0.01 0.00 0.00 0.00 0.00 0.00 0.00 0.00
0.00 0.00 0.00 0.00 0.00 0.00 0.00 0.00 0.00 0.00 0.00 0.00 0.00 0.00 0.00 0.00 0.00 0.00 0.00 0.00 0.00 0.00 0.00 0.00 0.00 0.00 0.00 0.00 0.00 0.01 0.01 0.01 0.00 0.00 0.00 0.00 0.00 0.00 0.00 0.01 0.01 0.01 0.00 0.00 0.00 0.00 0.00 0.00 0.00
0.00 0.00 0.00 0.00 0.00 0.00 0.00 0.00 0.00 0.00 0.00 0.00 0.00 0.00 0.00 0.00 0.00 0.00 0.00 0.00 0.00 0.00 0.00 0.00 0.00 0.00 0.00 0.00 0.00 0.01 0.01 0.01 0.01 0.00 0.00 0.00 0.00 0.00 0.01 0.01 0.01 0.01 0.00 0.00 0.00 0.00 0.00 0.00 0.00
0.00 0.00 0.00 0.00 0.00 0.00 0.00 0.00 0.00 0.00 0.00 0.00 0.00 0.00 0.00 0.00 0.00 0.00 0.00 0.00 0.00 0.00 0.00 0.00 0.00 0.00 0.00 0.01 0.01 0.01 0.01 0.01 0.01 0.01 0.01 0.01 0.01 0.01 0.01 0.01 0.01 0.00 0.00 0.00 0.00 0.00 0.00 0.00 0.00
0.00 0.00 0.00 0.00 0.00 0.00 0.00 0.00 0.00 0.00 0.00 0.00 0.00 0.00 0.00 0.00 0.00 0.00 0.00 0.00 0.00 0.00 0.00 0.00 0.00 0.00 0.01 0.01 0.01 0.01 0.02 0.02 0.02 0.02 0.02 0.02 0.01 0.02 0.02 0.01 0.01 0.01 0.00 0.00 0.00 0.00 0.00 0.00 0.00
0.00 0.00 0.00 0.00 0.00 0.00 0.00 0.00 0.00 0.00 0.00 0.00 0.00 0.00 0.00 0.00 0.00 0.00 0.00 0.00 0.00 0.00 0.00 0.00 0.00 0.00 0.01 0.01 0.02 0.02 0.02 0.03 0.03 0.03 0.03 0.03 0.03 0.03 0.03 0.02 0.02 0.01 0.01 0.00 0.00 0.00 0.00 0.00 0.00
0.00 0.00 0.00 0.00 0.00 0.00 0.00 0.00 0.00 0.00 0.00 0.00 0.00 0.00 0.00 0.00 0.00 0.00 0.00 0.00 0.00 0.00 0.00 0.00 0.00 0.00 0.00 0.01 0.02 0.03 0.03 0.03 0.03 0.03 0.03 0.04 0.04 0.04 0.04 0.03 0.02 0.02 0.01 0.00 0.00 0.00 0.00 0.00 0.00
0.00 0.00 0.00 0.00 0.00 0.00 0.00 0.00 0.00 0.00 0.00 0.00 0.00 0.00 0.00 0.00 0.00 0.00 0.00 0.00 0.00 0.00 0.00 0.00 0.00 0.00 0.00 0.01 0.01 0.03 0.03 0.03 0.03 0.03 0.04 0.04 0.04 0.04 0.03 0.03 0.02 0.01 0.00 0.00 0.00 0.00 0.00 0.00 0.00
0.00 0.00 0.00 0.00 0.00 0.00 0.00 0.00 0.00 0.00 0.00 0.00 0.00 0.00 0.00 0.00 0.00 0.00 0.00 0.00 0.00 0.00 0.00 0.00 0.00 0.00 0.00 0.01 0.01 0.02 0.03 0.04 0.04 0.04 0.04 0.04 0.04 0.04 0.03 0.03 0.02 0.01 0.00 0.00 0.00 0.00 0.00 0.00 0.00
0.00 0.00 0.00 0.00 0.00 0.00 0.00 0.00 0.00 0.00 0.00 0.00 0.00 0.00 0.00 0.00 0.00 0.00 0.00 0.00 0.00 0.00 0.00 0.00 0.00 0.00 0.00 0.00 0.01 0.02 0.02 0.03 0.03 0.04 0.05 0.06 0.06 0.05 0.04 0.03 0.02 0.01 0.00 0.00 0.00 0.00 0.00 0.00 0.00
0.00 0.00 0.00 0.00 0.00 0.00 0.00 0.00 0.00 0.00 0.00 0.00 0.00 0.00 0.00 0.00 0.00 0.00 0.00 0.00 0.00 0.00 0.00 0.00 0.00 0.00 0.00 0.00 0.01 0.01 0.02 0.02 0.02 0.03 0.04 0.05 0.06 0.05 0.04 0.02 0.02 0.01 0.01 0.00 0.00 0.00 0.00 0.00 0.00
0.00 0.00 0.00 0.00 0.00 0.00 0.00 0.00 0.00 0.00 0.00 0.00 0.00 0.00 0.00 0.00 0.00 0.00 0.00 0.00 0.00 0.00 0.00 0.00 0.00 0.00 0.00 0.01 0.01 0.01 0.01 0.01 0.02 0.02 0.02 0.03 0.03 0.02 0.01 0.01 0.01 0.01 0.01 0.01 0.01 0.00 0.00 0.00 0.00
0.00 0.00 0.00 0.00 0.00 0.00 0.00 0.00 0.00 0.00 0.00 0.00 0.00 0.00 0.00 0.00 0.00 0.00 0.00 0.00 0.00 0.00 0.00 0.00 0.00 0.00 0.00 0.00 0.01 0.01 0.01 0.01 0.01 0.01 0.01 0.01 0.01 0.01 0.01 0.01 0.01 0.02 0.02 0.02 0.01 0.01 0.01 0.00 0.00
0.00 0.00 0.00 0.00 0.00 0.00 0.00 0.00 0.00 0.00 0.00 0.00 0.00 0.00 0.00 0.00 0.00 0.00 0.00 0.00 0.00 0.00 0.00 0.00 0.00 0.00 0.00 0.00 0.00 0.00 0.00 0.00 0.00 0.00 0.01 0.01 0.01 0.01 0.02 0.02 0.02 0.02 0.02 0.02 0.02 0.02 0.02 0.01 0.01
0.00 0.00 0.00 0.00 0.00 0.00 0.00 0.00 0.00 0.00 0.00 0.00 0.00 0.00 0.00 0.00 0.00 0.00 0.00 0.00 0.00 0.00 0.00 0.00 0.00 0.00 0.00 0.00 0.00 0.00 0.00 0.00 0.00 0.00 0.00 0.00 0.01 0.01 0.01 0.02 0.02 0.02 0.02 0.02 0.02 0.02 0.02 0.01 0.01
0.00 0.00 0.00 0.00 0.00 0.00 0.00 0.00 0.00 0.00 0.00 0.00 0.00 0.00 0.00 0.00 0.00 0.00 0.00 0.00 0.00 0.00 0.00 0.00 0.00 0.00 0.00 0.00 0.00 0.00 0.00 0.00 0.00 0.00 0.00 0.00 0.00 0.00 0.00 0.00 0.00 0.00 0.01 0.01 0.01 0.01 0.01 0.01 0.00
0.00 0.00 0.00 0.00 0.00 0.00 0.00 0.00 0.00 0.00 0.00 0.00 0.00 0.00 0.00 0.00 0.00 0.00 0.00 0.00 0.00 0.00 0.00 0.00 0.00 0.00 0.00 0.00 0.00 0.00 0.00 0.00 0.00 0.00 0.00 0.00 0.00 0.00 0.00 0.00 0.00 0.00 0.00 0.00 0.00 0.00 0.00 0.00 0.00
0.00 0.00 0.00 0.00 0.00 0.00 0.00 0.00 0.00 0.00 0.00 0.00 0.00 0.00 0.00 0.00 0.00 0.00 0.00 0.00 0.00 0.00 0.00 0.00 0.00 0.00 0.00 0.00 0.00 0.00 0.00 0.00 0.00 0.00 0.00 0.00 0.00 0.00 0.00 0.00 0.00 0.00 0.00 0.00 0.00 0.00 0.00 0.00 0.00
0.00 0.00 0.00 0.00 0.00 0.00 0.00 0.00 0.00 0.00 0.00 0.00 0.00 0.00 0.00 0.00 0.00 0.00 0.00 0.00 0.00 0.00 0.00 0.00 0.00 0.00 0.00 0.00 0.00 0.00 0.00 0.00 0.00 0.00 0.00 0.00 0.00 0.00 0.00 0.00 0.00 0.00 0.00 0.00 0.00 0.00 0.00 0.00 0.00
0.00 0.00 0.00 0.00 0.00 0.00 0.00 0.00 0.00 0.00 0.00 0.00 0.00 0.00 0.00 0.00 0.00 0.00 0.00 0.00 0.00 0.00 0.00 0.00 0.00 0.00 0.00 0.00 0.00 0.00 0.00 0.00 0.00 0.00 0.00 0.00 0.00 0.00 0.00 0.00 0.00 0.00 0.00 0.00 0.00 0.00 0.00 0.00 0.00
0.00 0.00 0.00 0.00 0.00 0.00 0.00 0.00 0.00 0.00 0.00 0.00 0.00 0.00 0.00 0.00 0.00 0.00 0.00 0.00 0.00 0.00 0.00 0.00 0.00 0.00 0.00 0.00 0.00 0.00 0.00 0.00 0.00 0.00 0.00 0.00 0.00 0.00 0.00 0.00 0.00 0.00 0.00 0.00 0.00 0.00 0.00 0.00 0.00
0.00 0.00 0.00 0.00 0.00 0.00 0.00 0.00 0.00 0.00 0.00 0.00 0.00 0.00 0.00 0.00 0.00 0.00 0.00 0.00 0.00 0.00 0.00 0.00 0.00 0.00 0.00 0.00 0.00 0.00 0.00 0.00 0.00 0.00 0.00 0.00 0.00 0.00 0.00 0.00 0.00 0.00 0.00 0.00 0.00 0.00 0.00 0.00 0.00
0.00 0.00 0.00 0.00 0.00 0.00 0.00 0.00 0.00 0.00 0.00 0.00 0.00 0.00 0.00 0.00 0.00 0.00 0.00 0.00 0.00 0.00 0.00 0.00 0.00 0.00 0.00 0.00 0.00 0.00 0.00 0.00 0.00 0.00 0.00 0.00 0.00 0.00 0.00 0.00 0.00 0.00 0.00 0.00 0.00 0.00 0.00 0.00 0.00
0.00 0.00 0.00 0.00 0.00 0.00 0.00 0.00 0.00 0.00 0.00 0.00 0.00 0.00 0.00 0.00 0.00 0.00 0.00 0.00 0.00 0.00 0.00 0.00 0.00 0.00 0.00 0.00 0.00 0.00 0.00 0.00 0.00 0.00 0.00 0.00 0.00 0.00 0.00 0.00 0.00 0.00 0.00 0.00 0.00 0.00 0.00 0.00 0.00
0.00 0.00 0.00 0.00 0.00 0.00 0.00 0.00 0.00 0.00 0.00 0.00 0.00 0.00 0.00 0.00 0.00 0.00 0.00 0.00 0.00 0.00 0.00 0.00 0.00 0.00 0.00 0.00 0.00 0.00 0.00 0.00 0.00 0.00 0.00 0.00 0.00 0.00 0.00 0.00 0.00 0.00 0.00 0.00 0.00 0.00 0.00 0.00 0.00
0.00 0.00 0.00 0.00 0.00 0.00 0.00 0.00 0.00 0.00 0.00 0.00 0.00 0.00 0.00 0.00 0.00 0.00 0.00 0.00 0.00 0.00 0.00 0.00 0.00 0.00 0.00 0.00 0.00 0.00 0.00 0.00 0.00 0.00 0.00 0.00 0.00 0.00 0.00 0.00 0.00 0.00 0.00 0.00 0.00 0.00 0.00 0.00 0.00
0.00 0.00 0.00 0.00 0.00 0.00 0.00 0.00 0.00 0.00 0.00 0.00 0.00 0.00 0.00 0.00 0.00 0.00 0.00 0.00 0.00 0.00 0.00 0.00 0.00 0.00 0.00 0.00 0.00 0.00 0.00 0.00 0.00 0.00 0.00 0.00 0.00 0.00 0.00 0.00 0.00 0.00 0.00 0.00 0.00 0.00 0.00 0.00 0.00
0.00 0.00 0.00 0.00 0.00 0.00 0.00 0.00 0.00 0.00 0.00 0.00 0.00 0.00 0.00 0.00 0.00 0.00 0.00 0.00 0.00 0.00 0.00 0.00 0.00 0.00 0.00 0.00 0.00 0.00 0.00 0.00 0.00 0.00 0.00 0.00 0.00 0.00 0.00 0.00 0.00 0.00 0.00 0.00 0.00 0.00 0.00 0.00 0.00
MSLP
1016.13 1016.47 1017.03 1017.75 1018.55 1019.33 1020.01 1020.52 1020.83 1020.94 1020.89 1020.74 1020.55 1020.35 1020.17 1020.01 1019.86 1019.71 1019.56 1019.41 1019.29 1019.22 1019.22 1019.33 1019.54 1019.82 1020.14 1020.45 1020.71 1020.89 1020.99 1021.02 1021.01 1021.00 1021.01 1021.06 1021.15 1021.27 1021.41 1021.52 1021.61 1021.66 1021.70 1021.72 1021.74 1021.77 1021.80 1021.81 1021.79
1016.42 1016.88 1017.54 1018.33 1019.14 1019.87 1020.44 1020.80 1020.94 1020.88 1020.69 1020.45 1020.21 1020.02 1019.89 1019.81 1019.76 1019.70 1019.61 1019.49 1019.37 1019.29 1019.26 1019.34 1019.52 1019.80 1020.12 1020.46 1020.76 1021.00 1021.15 1021.22 1021.25 1021.26 1021.28 1021.34 1021.42 1021.53 1021.65 1021.75 1021.83 1021.89 1021.94 1021.99 1022.04 1022.10 1022.15 1022.18 1022.15
1016.82 1017.38 1018.11 1018.91 1019.68 1020.31 1020.75 1020.95 1020.92 1020.72 1020.43 1020.13 1019.89 1019.75 1019.70 1019.72 1019.76 1019.78 1019.76 1019.68 1019.56 1019.46 1019.40 1019.44 1019.59 1019.85 1020.17 1020.52 1020.85 1021.12 1021.32 1021.44 1021.51 1021.54 1021.58 1021.64 1021.71 1021.81 1021.90 1021.99 1022.07 1022.13 1022.20 1022.26 1022.34 1022.42 1022.49 1022.51 1022.48
1017.30 1017.93 1018.68 1019.45 1020.14 1020.65 1020.93 1020.98 1020.82 1020.52 1020.17 1019.87 1019.67 1019.60 1019.64 1019.77 1019.90 1020.00 1020.03 1019.97 1019.86 1019.74 1019.65 1019.65 1019.77 1019.99 1020.29 1020.63 1020.97 1021.26 1021.48 1021.63 1021.73 1021.79 1021.84 1021.90 1021.97 1022.06 1022.14 1022.23 1022.30 1022.38 1022.45 1022.54 1022.63 1022.73 1022.80 1022.83 1022.79
1017.83 1018.50 1019.23 1019.92 1020.50 1020.87 1021.02 1020.94 1020.68 1020.34 1019.99 1019.73 1019.60 1019.62 1019.77 1019.98 1020.19 1020.35 1020.41 1020.37 1020.25 1020.11 1019.99 1019.95 1020.02 1020.20 1020.46 1020.77 1021.09 1021.37 1021.59 1021.75 1021.86 1021.94 1022.00 1022.07 1022.15 1022.23 1022.33 1022.42 1022.51 1022.60 1022.70 1022.81 1022.92 1023.03 1023.11 1023.13 1023.09
1018.35 1019.01 1019.69 1020.29 1020.74 1020.98 1021.01 1020.85 1020.55 1020.22 1019.93 1019.75 1019.72 1019.84 1020.07 1020.35 1020.61 1020.80 1020.86 1020.82 1020.69 1020.53 1020.38 1020.30 1020.32 1020.44 1020.64 1020.89 1021.16 1021.40 1021.60 1021.75 1021.86 1021.94 1022.02 1022.10 1022.19 1022.30 1022.41 1022.53 1022.65 1022.77 1022.90 1023.04 1023.18 1023.30 1023.38 1023.41 1023.37
1018.82 1019.45 1020.04 1020.53 1020.85 1020.99 1020.93 1020.74 1020.47 1020.19 1020.00 1019.94 1020.02 1020.23 1020.53 1020.86 1021.13 1021.31 1021.37 1021.30 1021.15 1020.95 1020.77 1020.65 1020.61 1020.66 1020.79 1020.96 1021.15 1021.33 1021.48 1021.60 1021.70 1021.78 1021.88 1021.98 1022.10 1022.24 1022.39 1022.54 1022.71 1022.87 1023.05 1023.22 1023.39 1023.53 1023.63 1023.67 1023.64
1019.24 1019.80 1020.29 1020.66 1020.86 1020.91 1020.82 1020.64 1020.43 1020.27 1020.21 1020.27 1020.47 1020.76 1021.11 1021.44 1021.71 1021.86 1021.87 1021.77 1021.58 1021.35 1021.13 1020.96 1020.86 1020.84 1020.88 1020.96 1021.07 1021.17 1021.26 1021.34 1021.42 1021.51 1021.61 1021.74 1021.89 1022.07 1022.26 1022.47 1022.68 1022.91 1023.13 1023.35 1023.54 1023.71 1023.83 1023.89 1023.88
1019.60 1020.07 1020.44 1020.69 1020.81 1020.80 1020.71 1020.58 1020.47 1020.44 1020.52 1020.72 1021.02 1021.38 1021.75 1022.07 1022.29 1022.39 1022.35 1022.20 1021.97 1021.71 1021.45 1021.23 1021.07 1020.98 1020.93 1020.92 1020.94 1020.96 1020.99 1021.04 1021.10 1021.19 1021.30 1021.46 1021.64 1021.85 1022.09 1022.34 1022.61 1022.88 1023.16 1023.42 1023.66 1023.86 1024.00 1024.08 1024.08
1019.92 1020.28 1020.54 1020.68 1020.72 1020.68 1020.61 1020.56 1020.57 1020.69 1020.91 1021.23 1021.62 1022.02 1022.39 1022.68 1022.85 1022.89 1022.80 1022.60 1022.34 1022.04 1021.75 1021.49 1021.27 1021.10 1020.98 1020.89 1020.83 1020.79 1020.77 1020.79 1020.84 1020.93 1021.06 1021.23 1021.43 1021.67 1021.94 1022.22 1022.53 1022.85 1023.16 1023.47 1023.75 1023.98 1024.14 1024.24 1024.26
1020.21 1020.47 1020.61 1020.66 1020.65 1020.60 1020.57 1020.60 1020.73 1020.98 1021.33 1021.75 1022.20 1022.64 1023.00 1023.25 1023.38 1023.36 1023.22 1022.98 1022.69 1022.37 1022.05 1021.76 1021.50 1021.27 1021.08 1020.93 1020.81 1020.73 1020.69 1020.69 1020.74 1020.84 1020.98 1021.15 1021.36 1021.61 1021.88 1022.17 1022.50 1022.84 1023.19 1023.53 1023.83 1024.08 1024.27 1024.37 1024.41
1020.47 1020.63 1020.68 1020.66 1020.60 1020.56 1020.58 1020.69 1020.92 1021.28 1021.72 1022.22 1022.73 1023.18 1023.53 1023.76 1023.85 1023.79 1023.63 1023.38 1023.07 1022.74 1022.41 1022.09 1021.79 1021.53 1021.30 1021.11 1020.97 1020.87 1020.83 1020.84 1020.90 1021.00 1021.14 1021.31 1021.51 1021.72 1021.97 1022.26 1022.57 1022.91 1023.27 1023.62 1023.94 1024.20 1024.39 1024.49 1024.52
1020.70 1020.78 1020.76 1020.68 1020.60 1020.57 1020.62 1020.80 1021.11 1021.54 1022.06 1022.61 1023.15 1023.61 1023.97 1024.19 1024.27 1024.21 1024.05 1023.80 1023.50 1023.17 1022.83 1022.50 1022.19 1021.91 1021.67 1021.47 1021.33 1021.26 1021.24 1021.27 1021.35 1021.47 1021.60 1021.74 1021.90 1022.07 1022.27 1022.51 1022.78 1023.10 1023.44 1023.78 1024.09 1024.34 1024.52 1024.60 1024.61
1020.87 1020.89 1020.82 1020.72 1020.63 1020.60 1020.69 1020.90 1021.26 1021.74 1022.29 1022.87 1023.43 1023.92 1024.29 1024.54 1024.64 1024.61 1024.48 1024.27 1023.99 1023.68 1023.35 1023.02 1022.71 1022.42 1022.19 1022.02 1021.91 1021.88 1021.91 1021.99 1022.10 1022.23 1022.34 1022.45 1022.55 1022.66 1022.78 1022.95 1023.16 1023.43 1023.73 1024.03 1024.31 1024.53 1024.67 1024.72 1024.68
1020.97 1020.95 1020.86 1020.75 1020.66 1020.64 1020.74 1020.97 1021.33 1021.82 1022.39 1022.99 1023.57 1024.09 1024.51 1024.80 1024.96 1025.00 1024.93 1024.76 1024.52 1024.24 1023.92 1023.60 1023.30 1023.03 1022.83 1022.71 1022.66 1022.69 1022.79 1022.93 1023.08 1023.21 1023.32 1023.38 1023.42 1023.45 1023.49 1023.57 1023.71 1023.90 1024.14 1024.39 1024.62 1024.78 1024.87 1024.86 1024.76
1021.00 1020.98 1020.89 1020.78 1020.69 1020.66 1020.75 1020.96 1021.31 1021.79 1022.35 1022.96 1023.57 1024.13 1024.61 1024.99 1025.24 1025.36 1025.36 1025.26 1025.07 1024.81 1024.51 1024.21 1023.92 1023.69 1023.53 1023.47 1023.50 1023.62 1023.79 1023.99 1024.19 1024.34 1024.43 1024.46 1024.43 1024.38 1024.34 1024.34 1024.39 1024.51 1024.68 1024.86 1025.02 1025.12 1025.13 1025.05 1024.88
1020.98 1020.98 1020.91 1020.80 1020.71 1020.67 1020.72 1020.90 1021.20 1021.63 1022.17 1022.78 1023.42 1024.04 1024.61 1025.09 1025.45 1025.67 1025.76 1025.73 1025.58 1025.35 1025.07 1024.78 1024.52 1024.33 1024.23 1024.24 1024.36 1024.56 1024.82 1025.10 1025.34 1025.51 1025.59 1025.59 1025.52 1025.41 1025.30 1025.22 1025.20 1025.25 1025.34 1025.45 1025.54 1025.56 1025.50 1025.34 1025.10
1020.97 1020.99 1020.94 1020.85 1020.74 1020.67 1020.67 1020.77 1021.00 1021.37 1021.88 1022.48 1023.16 1023.85 1024.51 1025.10 1025.58 1025.92 1026.10 1026.13 1026.03 1025.82 1025.56 1025.29 1025.05 1024.90 1024.86 1024.95 1025.16 1025.45 1025.80 1026.14 1026.43 1026.63 1026.72 1026.71 1026.61 1026.46 1026.31 1026.18 1026.11 1026.10 1026.14 1026.18 1026.19 1026.14 1026.01 1025.77 1025.47
1020.99 1021.05 1021.03 1020.94 1020.81 1020.68 1020.60 1020.61 1020.75 1021.04 1021.50 1022.10 1022.80 1023.56 1024.33 1025.04 1025.63 1026.07 1026.34 1026.44 1026.38 1026.20 1025.95 1025.69 1025.49 1025.39 1025.41 1025.57 1025.86 1026.24 1026.66 1027.06 1027.40 1027.64 1027.75 1027.74 1027.64 1027.49 1027.33 1027.19 1027.09 1027.05 1027.04 1027.03 1026.98 1026.87 1026.68 1026.39 1026.03
1021.07 1021.17 1021.17 1021.08 1020.91 1020.71 1020.54 1020.44 1020.47 1020.67 1021.07 1021.65 1022.39 1023.22 1024.07 1024.89 1025.60 1026.14 1026.49 1026.65 1026.62 1026.47 1026.24 1026.01 1025.84 1025.78 1025.86 1026.09 1026.45 1026.90 1027.38 1027.84 1028.22 1028.49 1028.64 1028.66 1028.59 1028.46 1028.32 1028.19 1028.10 1028.05 1028.02 1027.98 1027.89 1027.74 1027.51 1027.18 1026.80
1021.19 1021.33 1021.36 1021.25 1021.04 1020.77 1020.48 1020.27 1020.18 1020.30 1020.63 1021.19 1021.94 1022.83 1023.77 1024.69 1025.49 1026.13 1026.55 1026.77 1026.79 1026.67 1026.47 1026.27 1026.14 1026.12 1026.25 1026.54 1026.95 1027.44 1027.97 1028.46 1028.88 1029.19 1029.37 1029.44 1029.42 1029.34 1029.25 1029.17 1029.11 1029.07 1029.03 1028.98 1028.88 1028.71 1028.46 1028.13 1027.74
1021.30 1021.49 1021.54 1021.42 1021.17 1020.81 1020.42 1020.09 1019.90 1019.93 1020.20 1020.74 1021.50 1022.43 1023.44 1024.44 1025.34 1026.06 1026.55 1026.83 1026.90 1026.82 1026.67 1026.51 1026.42 1026.45 1026.62 1026.94 1027.38 1027.90 1028.44 1028.95 1029.39 1029.73 1029.95 1030.08 1030.12 1030.12 1030.09 1030.07 1030.06 1030.05 1030.03 1029.98 1029.88 1029.71 1029.47 1029.16 1028.79
1021.34 1021.57 1021.64 1021.51 1021.22 1020.79 1020.32 1019.89 1019.61 1019.56 1019.79 1020.31 1021.08 1022.05 1023.12 1024.19 1025.16 1025.95 1026.52 1026.86 1027.00 1026.98 1026.89 1026.78 1026.74 1026.81 1027.01 1027.35 1027.79 1028.31 1028.84 1029.35 1029.79 1030.15 1030.41 1030.59 1030.70 1030.78 1030.83 1030.87 1030.91 1030.94 1030.94 1030.90 1030.81 1030.65 1030.43 1030.15 1029.83
1021.23 1021.49 1021.58 1021.45 1021.12 1020.65 1020.12 1019.63 1019.29 1019.20 1019.40 1019.91 1020.70 1021.69 1022.81 1023.94 1024.97 1025.83 1026.48 1026.89 1027.10 1027.17 1027.14 1027.10 1027.11 1027.22 1027.45 1027.78 1028.21 1028.70 1029.20 1029.68 1030.11 1030.47 1030.76 1030.99 1031.17 1031.31 1031.44 1031.54 1031.63 1031.68 1031.70 1031.67 1031.59 1031.45 1031.26 1031.02 1030.75
1020.90 1021.20 1021.29 1021.16 1020.83 1020.34 1019.78 1019.27 1018.92 1018.81 1019.01 1019.53 1020.34 1021.36 1022.51 1023.68 1024.77 1025.69 1026.41 1026.91 1027.21 1027.36 1027.43 1027.46 1027.54 1027.68 1027.92 1028.25 1028.64 1029.08 1029.53 1029.97 1030.37 1030.72 1031.03 1031.30 1031.53 1031.74 1031.92 1032.07 1032.19 1032.26 1032.29 1032.25 1032.17 1032.04 1031.87 1031.68 1031.46
1020.35 1020.65 1020.75 1020.62 1020.29 1019.81 1019.27 1018.79 1018.45 1018.38 1018.61 1019.15 1019.98 1021.03 1022.21 1023.41 1024.54 1025.51 1026.30 1026.88 1027.28 1027.53 1027.69 1027.82 1027.96 1028.15 1028.40 1028.71 1029.06 1029.45 1029.84 1030.22 1030.58 1030.92 1031.24 1031.53 1031.81 1032.06 1032.29 1032.47 1032.60 1032.67 1032.68 1032.63 1032.53 1032.40 1032.24 1032.08 1031.91
1019.60 1019.88 1019.96 1019.83 1019.52 1019.07 1018.58 1018.15 1017.88 1017.87 1018.16 1018.74 1019.60 1020.67 1021.86 1023.07 1024.23 1025.24 1026.09 1026.75 1027.24 1027.60 1027.87 1028.10 1028.32 1028.55 1028.82 1029.12 1029.43 1029.77 1030.10 1030.43 1030.76 1031.08 1031.40 1031.72 1032.02 1032.30 1032.55 1032.74 1032.87 1032.92 1032.90 1032.82 1032.69 1032.54 1032.38 1032.24 1032.10
1018.69 1018.91 1018.96 1018.82 1018.52 1018.12 1017.71 1017.37 1017.20 1017.28 1017.64 1018.28 1019.17 1020.24 1021.43 1022.63 1023.79 1024.82 1025.71 1026.45 1027.03 1027.50 1027.88 1028.21 1028.51 1028.81 1029.10 1029.40 1029.70 1029.99 1030.28 1030.58 1030.88 1031.19 1031.52 1031.85 1032.17 1032.47 1032.73 1032.92 1033.03 1033.05 1032.99 1032.87 1032.70 1032.52 1032.35 1032.20 1032.08
1017.67 1017.82 1017.81 1017.64 1017.36 1017.02 1016.69 1016.47 1016.41 1016.60 1017.04 1017.73 1018.64 1019.71 1020.86 1022.04 1023.17 1024.21 1025.12 1025.91 1026.58 1027.15 1027.64 1028.07 1028.47 1028.83 1029.17 1029.49 1029.79 1030.07 1030.35 1030.63 1030.93 1031.24 1031.58 1031.93 1032.27 1032.59 1032.85 1033.03 1033.12 1033.10 1033.00 1032.84 1032.63 1032.41 1032.22 1032.06 1031.93
1016.61 1016.64 1016.55 1016.35 1016.08 1015.80 1015.58 1015.47 1015.54 1015.84 1016.36 1017.09 1018.01 1019.05 1020.16 1021.29 1022.37 1023.38 1024.30 1025.13 1025.86 1026.52 1027.12 1027.66 1028.15 1028.59 1029.00 1029.36 1029.68 1029.98 1030.27 1030.56 1030.88 1031.22 1031.58 1031.95 1032.32 1032.65 1032.92 1033.09 1033.16 1033.12 1032.99 1032.78 1032.54 1032.29 1032.06 1031.88 1031.74
Thickness
5750 5751 5754 5751 5738 5723 5709 5710 5714 5713 5716 5720 5720 5720 5719 5715 5710 5702 5716 5719 5717 5716 5712 5708 5706 5703 5701 5699 5698 5697 5696 5695 5694 5694 5694 5694 5694 5694 5694 5693 5693 5693 5693 5692 5692 5691 5691 5692 5693
5750 5752 5752 5745 5729 5711 5706 5714 5714 5715 5719 5721 5721 5720 5720 5717 5718 5717 5717 5716 5715 5715 5712 5710 5706 5704 5701 5700 5698 5697 5696 5694 5693 5692 5692 5691 5691 5691 5691 5690 5690 5689 5689 5689 5688 5687 5687 5688 5689
5750 5752 5746 5737 5722 5714 5709 5716 5718 5719 5721 5721 5720 5721 5719 5714 5716 5715 5713 5714 5714 5713 5711 5709 5706 5704 5702 5700 5698 5696 5695 5694 5693 5692 5691 5690 5689 5688 5688 5687 5687 5686 5686 5685 5684 5683 5683 5684 5685
5751 5748 5743 5731 5714 5714 5717 5719 5720 5720 5721 5721 5721 5718 5717 5710 5709 5710 5711 5712 5713 5711 5710 5708 5705 5703 5701 5699 5697 5696 5694 5693 5692 5691 5690 5689 5688 5687 5686 5685 5684 5683 5682 5681 5680 5679 5679 5680 5681
5750 5743 5729 5717 5711 5714 5719 5721 5721 5719 5719 5721 5720 5715 5711 5706 5707 5707 5709 5709 5710 5709 5707 5706 5703 5702 5700 5698 5696 5695 5693 5692 5691 5690 5688 5688 5687 5686 5685 5683 5682 5681 5679 5678 5676 5675 5675 5676 5677
5742 5739 5722 5712 5711 5713 5719 5720 5720 5719 5718 5718 5718 5714 5707 5702 5701 5702 5704 5705 5705 5704 5704 5703 5701 5700 5699 5697 5695 5694 5692 5691 5689 5688 5687 5686 5685 5683 5682 5681 5679 5678 5677 5675 5673 5672 5672 5672 5672
5736 5730 5720 5716 5710 5711 5716 5719 5719 5718 5716 5715 5717 5713 5709 5705 5696 5698 5699 5700 5699 5699 5699 5700 5700 5699 5698 5696 5694 5692 5691 5689 5687 5686 5685 5683 5682 5681 5679 5678 5677 5675 5674 5672 5670 5668 5668 5667 5667
5735 5728 5713 5713 5711 5709 5715 5717 5717 5717 5714 5714 5714 5712 5707 5698 5693 5696 5697 5697 5696 5695 5694 5695 5696 5697 5697 5696 5694 5692 5690 5688 5686 5684 5683 5681 5679 5678 5676 5674 5673 5671 5669 5668 5666 5664 5663 5662 5662
5730 5722 5712 5711 5711 5711 5713 5713 5714 5714 5713 5708 5702 5697 5688 5687 5692 5695 5696 5696 5694 5692 5691 5691 5692 5693 5693 5693 5693 5690 5688 5687 5685 5683 5681 5679 5678 5676 5674 5671 5669 5667 5665 5663 5661 5659 5658 5657 5656
5724 5716 5713 5714 5716 5713 5711 5711 5710 5710 5708 5704 5697 5688 5683 5684 5687 5690 5690 5690 5689 5688 5687 5687 5688 5689 5690 5691 5690 5689 5688 5686 5683 5682 5680 5678 5676 5674 5671 5668 5665 5663 5661 5659 5656 5654 5653 5651 5651
5718 5713 5710 5709 5710 5710 5706 5706 5707 5706 5703 5701 5697 5688 5680 5680 5681 5682 5682 5681 5681 5682 5683 5684 5685 5686 5687 5688 5688 5687 5685 5683 5681 5679 5677 5675 5673 5670 5667 5664 5661 5658 5655 5653 5651 5649 5647 5646 5644
5710 5707 5706 5706 5702 5702 5702 5702 5701 5700 5696 5681 5678 5675 5675 5675 5673 5672 5673 5673 5674 5676 5677 5679 5682 5684 5685 5685 5684 5683 5681 5678 5676 5674 5673 5671 5669 5666 5663 5660 5656 5653 5650 5647 5645 5643 5640 5639 5637
5703 5700 5700 5700 5697 5697 5696 5697 5696 5689 5675 5670 5668 5667 5667 5667 5666 5664 5664 5665 5666 5668 5670 5673 5677 5681 5681 5680 5679 5677 5674 5671 5669 5666 5665 5664 5662 5659 5656 5652 5648 5645 5642 5639 5637 5634 5632 5630 5628
5696 5696 5695 5695 5693 5691 5689 5691 5688 5683 5668 5666 5665 5664 5661 5658 5656 5658 5658 5658 5658 5658 5661 5665 5671 5674 5674 5673 5671 5668 5664 5661 5658 5655 5654 5654 5652 5649 5646 5641 5637 5634 5631 5629 5627 5625 5623 5621 5619
5688 5689 5693 5691 5688 5688 5684 5682 5684 5676 5665 5663 5660 5657 5652 5650 5649 5649 5648 5648 5648 5648 5652 5656 5661 5663 5663 5661 5658 5655 5652 5650 5647 5644 5642 5642 5641 5638 5635 5630 5626 5622 5619 5617 5615 5613 5612 5611 5609
5682 5681 5683 5687 5682 5680 5679 5686 5679 5664 5664 5662 5656 5652 5649 5644 5642 5640 5639 5639 5639 5640 5643 5646 5649 5651 5650 5648 5645 5642 5639 5636 5633 5630 5629 5628 5627 5625 5622 5618 5614 5611 5608 5605 5602 5601 5599 5598 5597
5673 5675 5676 5679 5678 5674 5675 5682 5670 5658 5660 5659 5653 5647 5643 5640 5636 5632 5631 5631 5631 5632 5633 5635 5637 5638 5636 5634 5632 5628 5625 5622 5618 5616 5614 5613 5612 5610 5608 5604 5600 5598 5595 5592 5590 5587 5586 5584 5584
5670 5669 5668 5671 5672 5668 5669 5676 5666 5656 5656 5657 5649 5642 5637 5634 5627 5623 5622 5622 5623 5624 5625 5626 5626 5625 5624 5622 5619 5615 5611 5606 5602 5600 5597 5596 5595 5593 5591 5588 5584 5582 5580 5578 5576 5574 5571 5569 5569
5669 5665 5666 5667 5661 5660 5665 5670 5670 5657 5651 5650 5644 5638 5634 5627 5618 5616 5615 5615 5616 5616 5617 5617 5617 5615 5614 5612 5608 5603 5596 5590 5586 5582 5579 5578 5576 5575 5573 5570 5566 5563 5560 5558 5557 5557 5556 5554 5554
5654 5654 5658 5656 5648 5650 5656 5662 5667 5656 5651 5648 5642 5634 5627 5620 5614 5610 5609 5608 5608 5608 5607 5606 5606 5604 5602 5599 5595 5587 5580 5573 5568 5564 5561 5559 5557 5555 5552 5549 5545 5542 5539 5537 5535 5535 5536 5534 5533
5644 5648 5653 5647 5639 5638 5640 5657 5662 5650 5635 5629 5628 5625 5620 5616 5612 5606 5602 5600 5599 5597 5596 5595 5593 5592 5589 5585 5580 5574 5567 5560 5553 5547 5543 5539 5537 5534 5532 5528 5524 5520 5518 5515 5512 5512 5512 5512 5511
5641 5643 5640 5633 5629 5638 5632 5645 5663 5657 5638 5627 5621 5617 5615 5608 5603 5599 5595 5592 5589 5585 5584 5582 5580 5578 5576 5573 5570 5566 5558 5547 5537 5530 5525 5520 5516 5514 5510 5507 5503 5498 5495 5492 5489 5487 5487 5486 5486
5636 5625 5622 5621 5620 5621 5621 5625 5654 5650 5645 5640 5623 5614 5609 5603 5597 5591 5585 5580 5576 5573 5571 5569 5566 5563 5560 5557 5553 5548 5540 5530 5520 5513 5507 5502 5496 5492 5489 5485 5481 5477 5472 5469 5466 5464 5463 5461 5460
5615 5611 5605 5604 5606 5607 5626 5620 5643 5653 5656 5647 5623 5609 5601 5594 5587 5580 5573 5568 5564 5561 5558 5556 5552 5548 5544 5540 5535 5531 5523 5514 5506 5498 5491 5484 5477 5472 5467 5463 5459 5455 5450 5446 5443 5441 5439 5437 5435
5611 5611 5600 5594 5593 5610 5615 5614 5638 5650 5637 5632 5620 5605 5595 5585 5579 5572 5565 5560 5554 5549 5545 5542 5538 5532 5527 5522 5517 5511 5504 5497 5489 5481 5473 5466 5459 5452 5446 5442 5437 5433 5428 5424 5421 5418 5415 5413 5411
5609 5614 5605 5599 5599 5609 5586 5603 5631 5621 5609 5604 5604 5596 5585 5577 5571 5563 5557 5549 5542 5536 5531 5527 5523 5516 5510 5505 5498 5491 5485 5478 5469 5462 5454 5447 5439 5432 5426 5421 5416 5412 5407 5403 5400 5396 5393 5390 5388
5597 5601 5608 5596 5575 5583 5604 5610 5617 5599 5595 5589 5586 5582 5577 5570 5562 5553 5544 5536 5529 5523 5517 5512 5506 5499 5493 5487 5480 5473 5466 5459 5451 5442 5434 5426 5419 5412 5406 5401 5396 5391 5386 5382 5379 5375 5371 5368 5366
5597 5599 5581 5587 5579 5589 5606 5605 5622 5614 5606 5587 5578 5575 5571 5562 5551 5542 5533 5525 5517 5510 5503 5496 5490 5484 5477 5470 5463 5456 5448 5440 5432 5424 5416 5408 5400 5393 5387 5381 5376 5371 5366 5362 5358 5354 5350 5347 5344
5582 5581 5589 5594 5594 5590 5594 5610 5617 5618 5611 5596 5586 5575 5565 5555 5546 5535 5525 5515 5505 5497 5489 5482 5475 5468 5460 5454 5446 5438 5429 5421 5413 5405 5397 5389 5382 5374 5368 5362 5356 5351 5346 5341 5337 5333 5329 5325 5322
5588 5593 5590 5588 5581 5586 5595 5604 5594 5595 5595 5591 5582 5566 5555 5547 5538 5527 5516 5504 5495 5486 5478 5470 5462 5454 5446 5438 5429 5421 5412 5403 5395 5387 5379 5371 5363 5356 5349 5342 5336 5331 5326 5321 5317 5312 5307 5303 5299